Location: Newark
(49.8348°N, 24.0280°E)
Time: 11:25:28
(UTC+00:00)

S-56A Canister/Altair - Visible Passes

Search period start: 20 January 2020 00:00
Search period end: 30 January 2020 00:00
Orbit: 634 x 2498 km, 38.9° (Epoch: 19 January)

Date Brightness Start Highest point End Pass type
(mag) Time Alt. Az. Time Alt. Az. Time Alt. Az.
25 Jan 10.2 18:45:04 10° SSW 18:45:59 13° SSW 18:45:59 13° SSW visible
26 Jan 9.7 18:12:11 10° SSW 18:15:15 18° S 18:15:15 18° S visible
27 Jan 9.5 17:39:16 10° SSW 17:44:09 19° SSE 17:44:29 19° SSE visible
28 Jan 9.6 17:06:19 10° SSW 17:11:32 19° SSE 17:13:42 16° SE visible
28 Jan 10.1 19:09:25 10° SW 19:11:09 16° SW 19:11:09 16° SW visible
29 Jan 9.8 16:33:19 10° SSW 16:38:51 19° SSE 16:42:55 11° ESE visible
29 Jan 9.5 18:36:21 10° SW 18:40:21 24° SSW 18:40:21 24° SSW visible
